Regional Weather Roundup
Issued by NWS

Home | Current Version | Previous Version | Graphics & Text | Print | Product List | Glossary On
Versions: 1 2 3 4 5 6 7 8 9 10 11 12 13 14 15 16 17 18 19 20 21 22 23 24 25 26 27 28 29 30 31 32 33 34 35 36 37 38 39 40 41 42 43 44 45 46 47 48 49
000
ASUS45 KSLC 301010
RWRUT

UTAH REGIONAL WEATHER ROUNDUP
NATIONAL WEATHER SERVICE SALT LAKE CITY UT
400 AM MDT TUE JUN 30 2015

UTZ001>011-023>025-301100-

NORTHERN UTAH

CITY           SKY/WX    TMP DP  RH WIND       PRES   REMARKS
BRIGHAM CITY   PTCLDY    76  51  40 CALM      30.04S
HILL AFB       PTCLDY    76  51  41 E15       30.07F
LOGAN          CLEAR     68  56  65 SW6       30.09S
OGDEN          PTCLDY    76  51  41 S9        30.04F
PROVO AIRPORT  CLOUDY    73  55  53 SE3       30.08R
SALT LAKE CITY MOCLDY    79  53  40 S6        30.03F
VERNAL         MOCLDY    71  43  36 W5        30.13S
WENDOVER       MOCLDY    84  48  28 S8        30.06R
HEBER CITY     CLOUDY    61  50  67 CALM      30.19R
WEST JORDAN    CLEAR     77  52  41 SW6       30.07F

$$

UTZ012>022-026-027-301100-

SOUTHERN/CENTRAL UTAH

CITY           SKY/WX    TMP DP  RH WIND       PRES   REMARKS
BLANDING       CLEAR     69  44  41 NE5       30.27R
BRYCE CANYON   MOCLDY    58  45  62 W6        30.37S
CEDAR CITY     PTCLDY    68  46  45 N7        30.19F
DELTA          MOCLDY    76  40  27 S10       30.10S
HANKSVILLE     PTCLDY    70  37  30 CALM      30.05S
MILFORD        PTCLDY    72  47  40 SW12      30.13S
MOAB/CYNLANDS  CLEAR     75  40  28 CALM      30.02S
PRICE          PTCLDY    68  38  33 N6        30.17S
ST GEORGE      CLOUDY    86  48  26 E10       29.99S
KANAB          PTCLDY    66  54  63 E5        30.22R

$$

REGIONAL REPORTS     COLORADO/ARIZONA

CITY           SKY/WX    TMP DP  RH WIND       PRES   REMARKS
CRAIG, CO      PTCLDY    53  46  77 CALM      30.24S
GRAND JUNCTION PTCLDY    70  44  39 SE7       30.09R
RIFLE          PTCLDY    64  43  46 CALM      30.19R
MONTROSE       PTCLDY    68  47  46 SE8       30.21R
CORTEZ         CLEAR     61  48  62 SW3       30.21S
PAGE, AZ       PTCLDY    82  48  30 SW5       30.05S
GRAND CANYON   PTCLDY    52  49  89 CALM      30.30S
KINGMAN        CLOUDY    78  55  44 SE13      30.00F
FLAGSTAFF      CLOUDY    67  46  47 CALM      30.31S

$$

REGIONAL REPORTS    NEVADA/IDAHO/WYOMING

CITY           SKY/WX    TMP DP  RH WIND       PRES   REMARKS
LAS VEGAS, NV  CLOUDY    94  55  26 S15       29.86S HX  92
ELY            MOCLDY    70  46  42 SW7       30.26S
ELKO           PTCLDY    69  50  50 CALM      30.15S
POCATELLO, ID  CLEAR     68  61  78 N9        30.10S
BURLEY         MOCLDY    67  55  65 SW5       30.05S
EVANSTON, WY   MOCLDY    68  44  42 N7        30.31R
ROCK SPRINGS   MOCLDY    67  39  35 SE8       30.25S
KEMMERER       CLOUDY    61  43  51 NW10      30.32R

$$



USA.gov is the U.S. government's official web portal to all federal, state and local government web resources and services.